Find Starlink 3523

NORAD ID: 51729 Int'l Des: 2022-016 Owner: SPXS Country: US Constellation: starlink operational
LEOCIRCULAR

現在のビュー

3D地球を読み込み中...

About Starlink 3523

Starlink 3523 (NORAD 51729) is a starlink constellation satellite (v1.5) launched Feb 21, 2022 by SPXS of US. It operates in LEO, CIRCULAR orbit with a mass of 297.00 kg.

Starlink 3523について

説明を読み込み中...

次回通過

Passes for default location (London). Set your location on the main map for personalized predictions.

高度履歴

Loading altitude history...

軌道要素

1 51729U 22016R 26170.49623737 -.00000558 00000-0 -16978-4 0 9997
2 51729 53.1589 221.9817 0001044 81.8024 278.3086 15.08830088238939
Epoch: Jun 19, 2026 • Age: 14 hours

現在のステータス

高度 540.8 km
速度 7.59 km/s
衛星直下点 -0.08°S, 109.9°E
打ち上げ日 Feb 21, 2022
運用期間 4.3 years
タイプ internet

技術仕様

分類 Payload
質量 297.00 kg
乾燥質量 275.00 kg
総質量 297.00 kg
長さ 0.20 m
直径 2.80 m
スパン 9.00 m
形状 Box + pan
製造者 SPXS
バスタイプ Starlink
フェーズステータス In Orbit
所有者/国 SPXS/US

Most Searched